Regional Weather Roundup
Issued by NWS

Home | Current Version | Previous Version | Text Only | Print | Product List | Glossary On
Versions: 1 2 3 4 5 6 7 8 9 10 11 12 13 14 15 16 17 18 19 20 21 22 23 24 25 26 27 28 29 30 31 32 33 34 35 36 37 38 39 40 41 42 43 44 45 46 47 48 49 50
000
ASUS44 KOUN 080110
RWROK

WEATHER ROUNDUP FOR OKLAHOMA
NATIONAL WEATHER SERVICE NORMAN OK
700 PM CST WED DEC 07 2016

NOTE: "FAIR" INDICATES FEW OR NO CLOUDS BELOW 12,000 FEET WITH NO
      SIGNIFICANT WEATHER AND/OR OBSTRUCTIONS TO VISIBILITY.

OKZ001>007-009>012-014-015-017-080200-
NORTHWEST OKLAHOMA AND THE PANHANDLE

CITY           SKY/WX    TMP DP  RH WIND       PRES   REMARKS
GAGE           CLEAR     27  18  69 N12       30.36R WCI  17
GUYMON         CLOUDY    22  16  78 N15       30.36R WCI   9
ENID/WOODRING  MOCLDY    30  25  80 N16       30.38R WCI  19
$$

OKZ016-021>023-033>039-044-045-080200-
SOUTHWEST OKLAHOMA

CITY           SKY/WX    TMP DP  RH WIND       PRES   REMARKS
LAWTON/REGL    CLOUDY    38  28  67 NE17      30.30R WCI  28
LAWTON/FT SILL CLOUDY    37  29  72 NE17G28   30.29R WCI  27
FREDERICK      CLOUDY    39  25  57 N20       30.27R WCI  29
CLINTON        CLOUDY    33  20  58 NE15      30.33R WCI  23
HOBART         CLOUDY    35  24  64 NE20G28   30.32R WCI  24
ALTUS AFB      CLOUDY    38  24  56 NE16G31   30.30R WCI  29
$$

OKZ018>020-024>031-080200-
CENTRAL OKLAHOMA

CITY           SKY/WX    TMP DP  RH WIND       PRES   REMARKS
OKLAHOMA CITY  CLOUDY    34  24  67 NE14      30.32R WCI  25
OKC/WILEY POST CLOUDY    34  25  69 NE12      30.34R WCI  25
OKC/TINKER AFB CLOUDY    33  24  70 NE12      30.32R WCI  24
STILLWATER     CLOUDY    31  22  69 NE15      30.37R WCI  20
GUTHRIE        CLOUDY    33  20  58 NE8       30.36R WCI  26
$$

OKZ008-013-054>072-080200-
NORTHEAST OKLAHOMA

CITY           SKY/WX    TMP DP  RH WIND       PRES   REMARKS
TULSA          CLOUDY    33  25  72 N16G24    30.36R WCI  23
TULSA/JONES    CLOUDY    34  23  64 N12G23    30.37R WCI  25
PONCA CITY     CLEAR     27  20  75 N9        30.40R WCI  18
BARTLESVILLE   CLOUDY    30  23  75 N10G21    30.42R WCI  21
MUSKOGEE       CLOUDY    36  28  73 N10       30.35R WCI  28
$$

OKZ032-040>043-046>053-073>077-080200-
SOUTH CENTRAL/SOUTHEAST OKLAHOMA

CITY           SKY/WX    TMP DP  RH WIND       PRES   REMARKS
ARDMORE/DWNTWN CLOUDY    37  32  81 NE14      30.28R WCI  29
MCALESTER      CLOUDY    38  34  85 NE7       30.30R WCI  33
$$




USA.gov is the U.S. government's official web portal to all federal, state and local government web resources and services.